User: anonymous   Login
Location: Dyersburg
(36.0438°N, 89.3789°W)
Time: 04:11:53
(UTC+00:00)
Language:

A-11 Canister half - Orbit

View from above orbital plane
View from above orbital plane
View from above satellite
View from above satellite

Ground track
Ground track

The orbit data is extracted from the following two-line orbital elements,

1    53U 60009E   20054.57021681 -.00000120 +00000-0 -33743-3 0  9992
2    53 047.2739 253.2688 0100154 101.3807 259.8252 12.17240650654575
Epoch (UTC): 23 February 2020 13:41:06
Eccentricity: 0.0100154
inclination: 47.2739°
perigee height: 1524 km
apogee height: 1684 km
right ascension of ascending node: 253.2688°
argument of perigee: 101.3807°
revolutions per day: 12.17240650
mean anomaly at epoch: 259.8252°
orbit number at epoch: 65457

The dashed part of the orbit path shows where the satellite is in the earth's shadow,  

DLR